When you browse on this site, cookies collect data to enhance your experience and personalize the content and advertising you see.
Visit our Privacy Policy to learn more. By continuing to use the site, you agree to this use of cookies and data.
  • In Slovakia
  • List of Countries
  • For 7 days
  • Water Temperature
  • Satellite Maps
  • Weather Map
  • Weather Widgets
  • user-avatar
    Login

    Hourly Weather Puyo

    Today, 18 January, Friday

    Time Temperature Precipitation Wind Pressure Humidity
    00:00 +21°C° 0.1 mm 1 mps 672 mmHg 82%
    01:00 +20°C° 0.1 mm 1 mps 672 mmHg 80%
    02:00 +20°C° 0.1 mm 1 mps 671 mmHg 79%
    03:00 +20°C° 0.1 mm 1 mps 671 mmHg 77%
    04:00 +20°C° 0.1 mm 1 mps 671 mmHg 76%
    05:00 +20°C° 0 mm 1 mps 671 mmHg 74%
    06:00 +20°C° 0 mm 1 mps 671 mmHg 72%
    07:00 +20°C° 0 mm 1 mps 671 mmHg 71%
    08:00 +23°C° 0 mm 1 mps 672 mmHg 62%
    09:00 +26°C° 0 mm 1 mps 673 mmHg 54%
    10:00 +28°C° 0 mm 2 mps 674 mmHg 46%
    11:00 +29°C° 0 mm 2 mps 673 mmHg 45%
    12:00 +30°C° 0 mm 2 mps 673 mmHg 44%
    13:00 +31°C° 0 mm 2 mps 672 mmHg 43%
    14:00 +31°C° 0 mm 2 mps 671 mmHg 44%
    15:00 +31°C° 0 mm 2 mps 671 mmHg 45%
    16:00 +30°C° 0 mm 2 mps 670 mmHg 46%
    17:00 +28°C° 0.2 mm 1 mps 670 mmHg 60%
    18:00 +25°C° 0.2 mm 1 mps 669 mmHg 74%
    19:00 +20°C° 0.2 mm 0 mps 669 mmHg 88%
    20:00 +20°C° 0.3 mm 0 mps 670 mmHg 89%
    21:00 +22°C° 0.3 mm 1 mps 671 mmHg 90%
    22:00 +21°C° 0.3 mm 1 mps 671 mmHg 91%
    23:00 +21°C° 0.3 mm 1 mps 671 mmHg 90%

    Tomorrow, 19 January, Saturday

    Time Temperature Precipitation Wind Pressure Humidity
    00:00 +21°C° 0.3 mm 1 mps 671 mmHg 89%
    01:00 +21°C° 0.3 mm 1 mps 671 mmHg 89%
    02:00 +21°C° 0.4 mm 1 mps 671 mmHg 88%
    03:00 +19°C° 0.4 mm 0 mps 671 mmHg 87%
    04:00 +19°C° 0.4 mm 0 mps 670 mmHg 86%
    05:00 +18°C° 0.8 mm 0 mps 671 mmHg 87%
    06:00 +18°C° 0.8 mm 0 mps 671 mmHg 87%
    07:00 +20°C° 0.8 mm 1 mps 671 mmHg 88%
    08:00 +20°C° 2.5 mm 1 mps 672 mmHg 89%
    09:00 +20°C° 2.5 mm 1 mps 672 mmHg 90%
    10:00 +20°C° 2.5 mm 1 mps 672 mmHg 91%
    11:00 +19°C° 1.3 mm 0 mps 672 mmHg 88%
    12:00 +20°C° 1.3 mm 0 mps 671 mmHg 85%
    13:00 +22°C° 1.3 mm 0 mps 671 mmHg 81%
    14:00 +25°C° 0.2 mm 1 mps 671 mmHg 75%
    15:00 +26°C° 0.2 mm 1 mps 670 mmHg 69%
    16:00 +27°C° 0.2 mm 1 mps 670 mmHg 63%
    17:00 +25°C° 0.1 mm 1 mps 670 mmHg 73%
    18:00 +23°C° 0.1 mm 1 mps 670 mmHg 82%
    19:00 +20°C° 0.1 mm 0 mps 670 mmHg 91%
    20:00 +19°C° 0.1 mm 0 mps 670 mmHg 91%
    21:00 +19°C° 0.1 mm 0 mps 671 mmHg 92%
    22:00 +21°C° 0.1 mm 1 mps 672 mmHg 92%
    23:00 +21°C° 0.2 mm 1 mps 672 mmHg 88%

    Day after tomorrow, 20 January, Sunday

    Time Temperature Precipitation Wind Pressure Humidity
    00:00 +21°C° 0.2 mm 1 mps 671 mmHg 85%
    01:00 +21°C° 0.2 mm 1 mps 671 mmHg 82%
    02:00 +21°C° 0.3 mm 1 mps 671 mmHg 81%
    03:00 +19°C° 0.3 mm 0 mps 670 mmHg 80%
    04:00 +19°C° 0.3 mm 0 mps 670 mmHg 79%
    05:00 +19°C° 0.2 mm 0 mps 670 mmHg 79%
    06:00 +19°C° 0.2 mm 0 mps 671 mmHg 79%
    07:00 +19°C° 0.2 mm 0 mps 671 mmHg 79%
    08:00 +22°C° 0.3 mm 1 mps 672 mmHg 74%
    09:00 +24°C° 0.3 mm 1 mps 673 mmHg 70%
    10:00 +25°C° 0.3 mm 1 mps 674 mmHg 65%
    11:00 +26°C° 0.3 mm 1 mps 673 mmHg 63%
    12:00 +27°C° 0.3 mm 1 mps 673 mmHg 60%
    13:00 +28°C° 0.3 mm 1 mps 673 mmHg 58%
    14:00 +28°C° 0.2 mm 1 mps 672 mmHg 59%
    15:00 +28°C° 0.2 mm 1 mps 671 mmHg 60%
    16:00 +28°C° 0.2 mm 1 mps 670 mmHg 61%
    17:00 +26°C° 0.1 mm 1 mps 670 mmHg 71%
    18:00 +22°C° 0.1 mm 0 mps 670 mmHg 80%
    19:00 +20°C° 0.1 mm 0 mps 670 mmHg 90%
    20:00 +20°C° 0.1 mm 0 mps 671 mmHg 90%
    21:00 +20°C° 0.1 mm 0 mps 671 mmHg 90%
    22:00 +22°C° 0.1 mm 1 mps 672 mmHg 90%
    23:00 +22°C° 0.2 mm 1 mps 672 mmHg 88%

    21 January, Monday

    Time Temperature Precipitation Wind Pressure Humidity
    00:00 +22°C° 0.2 mm 1 mps 672 mmHg 86%
    01:00 +22°C° 0.2 mm 1 mps 671 mmHg 85%
    02:00 +22°C° 0.5 mm 1 mps 671 mmHg 83%
    03:00 +22°C° 0.5 mm 1 mps 671 mmHg 81%
    04:00 +22°C° 0.5 mm 1 mps 670 mmHg 80%
    05:00 +22°C° 0.2 mm 1 mps 671 mmHg 79%
    06:00 +22°C° 0.2 mm 1 mps 671 mmHg 78%
    07:00 +22°C° 0.2 mm 1 mps 672 mmHg 78%
    08:00 +23°C° 0.1 mm 1 mps 672 mmHg 71%
    09:00 +25°C° 0.1 mm 1 mps 673 mmHg 63%
    10:00 +27°C° 0.1 mm 1 mps 674 mmHg 56%
    11:00 +28°C° 0.2 mm 1 mps 673 mmHg 54%
    12:00 +29°C° 0.2 mm 1 mps 673 mmHg 53%
    13:00 +30°C° 0.2 mm 1 mps 672 mmHg 51%
    14:00 +30°C° 0.1 mm 1 mps 671 mmHg 52%
    15:00 +30°C° 0.1 mm 2 mps 670 mmHg 54%
    16:00 +29°C° 0.1 mm 2 mps 669 mmHg 56%
    17:00 +27°C° 0.3 mm 1 mps 670 mmHg 68%
    18:00 +25°C° 0.3 mm 1 mps 670 mmHg 79%
    19:00 +21°C° 0.3 mm 0 mps 670 mmHg 91%
    20:00 +21°C° 0.5 mm 0 mps 671 mmHg 92%
    21:00 +21°C° 0.5 mm 0 mps 671 mmHg 92%
    22:00 +22°C° 0.5 mm 1 mps 672 mmHg 93%
    23:00 +22°C° 0.3 mm 1 mps 672 mmHg 91%

    22 January, Tuesday

    Time Temperature Precipitation Wind Pressure Humidity
    00:00 +22°C° 0.3 mm 1 mps 672 mmHg 89%
    01:00 +22°C° 0.3 mm 1 mps 671 mmHg 88%
    02:00 +22°C° 0.3 mm 1 mps 671 mmHg 86%
    03:00 +20°C° 0.3 mm 0 mps 671 mmHg 85%
    04:00 +20°C° 0.3 mm 0 mps 670 mmHg 84%
    05:00 +22°C° 0.4 mm 1 mps 671 mmHg 83%
    06:00 +22°C° 0.4 mm 1 mps 671 mmHg 82%
    07:00 +21°C° 0.4 mm 1 mps 671 mmHg 81%
    08:00 +22°C° 0.4 mm 1 mps 672 mmHg 80%
    09:00 +21°C° 0.4 mm 0 mps 672 mmHg 79%
    10:00 +21°C° 0.4 mm 0 mps 673 mmHg 77%
    11:00 +23°C° 0.4 mm 0 mps 672 mmHg 73%
    12:00 +24°C° 0.4 mm 0 mps 672 mmHg 68%
    13:00 +26°C° 0.4 mm 0 mps 672 mmHg 64%
    14:00 +28°C° 0.1 mm 1 mps 671 mmHg 62%
    15:00 +28°C° 0.1 mm 1 mps 670 mmHg 60%
    16:00 +28°C° 0.1 mm 1 mps 670 mmHg 58%
    17:00 +26°C° 0.2 mm 1 mps 670 mmHg 69%
    18:00 +24°C° 0.2 mm 1 mps 670 mmHg 80%
    19:00 +21°C° 0.2 mm 0 mps 670 mmHg 91%
    20:00 +20°C° 0.5 mm 0 mps 671 mmHg 91%
    21:00 +20°C° 0.5 mm 0 mps 671 mmHg 92%
    22:00 +20°C° 0.5 mm 0 mps 672 mmHg 92%
    23:00 +20°C° 0.6 mm 0 mps 672 mmHg 91%

    23 January, Wednesday

    Time Temperature Precipitation Wind Pressure Humidity
    00:00 +20°C° 0.6 mm 0 mps 671 mmHg 91%
    01:00 +20°C° 0.6 mm 0 mps 671 mmHg 90%
    02:00 +19°C° 0.5 mm 0 mps 671 mmHg 89%
    03:00 +19°C° 0.5 mm 0 mps 670 mmHg 88%
    04:00 +19°C° 0.5 mm 0 mps 670 mmHg 88%
    05:00 +19°C° 0.5 mm 0 mps 671 mmHg 87%
    06:00 +19°C° 0.5 mm 0 mps 671 mmHg 86%
    07:00 +21°C° 0.5 mm 1 mps 671 mmHg 85%
    08:00 +23°C° 0.5 mm 1 mps 672 mmHg 80%
    09:00 +22°C° 0.5 mm 0 mps 672 mmHg 76%
    10:00 +23°C° 0.5 mm 0 mps 673 mmHg 71%
    11:00 +26°C° 0.3 mm 1 mps 673 mmHg 67%
    12:00 +27°C° 0.3 mm 1 mps 672 mmHg 63%
    13:00 +29°C° 0.3 mm 1 mps 672 mmHg 60%
    14:00 +28°C° 0.2 mm 1 mps 671 mmHg 62%
    15:00 +28°C° 0.2 mm 1 mps 670 mmHg 65%
    16:00 +27°C° 0.2 mm 2 mps 669 mmHg 68%
    17:00 +26°C° 0.5 mm 1 mps 669 mmHg 77%
    18:00 +24°C° 0.5 mm 1 mps 669 mmHg 86%
    19:00 +21°C° 0.5 mm 0 mps 669 mmHg 95%
    20:00 +21°C° 0.5 mm 0 mps 670 mmHg 95%
    21:00 +20°C° 0.5 mm 0 mps 671 mmHg 95%
    22:00 +20°C° 0.5 mm 0 mps 672 mmHg 95%
    23:00 +20°C° 0.4 mm 0 mps 671 mmHg 94%
    Show more